TimeEST,TemperatureF,Dew PointF,Humidity,Sea Level PressureIn,VisibilityMPH,Wind Direction,Wind SpeedMPH,Gust SpeedMPH,PrecipitationIn,Events,Conditions,WindDirDegrees,DateUTC
12:53 AM,36.0,25.0,64,29.71,10.0,NW,15.0,26.5,N/A,,Overcast,310,2013-03-05 05:53:00
2:17 AM,35.6,24.8,65,29.72,10.0,NW,19.6,25.3,N/A,,Overcast,310,2013-03-05 07:17:00
2:45 AM,35.6,24.8,65,29.73,10.0,WNW,17.3,25.3,N/A,,Overcast,300,2013-03-05 07:45:00
2:53 AM,35.1,25.0,67,29.73,10.0,WNW,16.1,26.5,N/A,,Overcast,300,2013-03-05 07:53:00
3:53 AM,35.1,25.0,67,29.75,10.0,NW,16.1,26.5,N/A,,Overcast,310,2013-03-05 08:53:00
4:03 AM,35.6,24.8,65,29.75,10.0,NW,19.6,-,N/A,,Overcast,310,2013-03-05 09:03:00
4:53 AM,36.0,25.0,64,29.78,10.0,NW,15.0,-,N/A,,Overcast,310,2013-03-05 09:53:00
5:53 AM,36.0,26.1,67,29.80,10.0,NW,18.4,25.3,N/A,,Overcast,320,2013-03-05 10:53:00
6:53 AM,36.0,27.0,70,29.83,10.0,NNW,18.4,26.5,N/A,,Overcast,330,2013-03-05 11:53:00
7:22 AM,35.6,26.6,70,29.84,10.0,NNW,20.7,27.6,N/A,,Mostly Cloudy,330,2013-03-05 12:22:00
8:13 AM,37.4,28.4,70,29.85,10.0,NNW,19.6,31.1,N/A,,Overcast,330,2013-03-05 13:13:00
8:35 AM,39.2,28.4,65,29.85,10.0,NNW,20.7,31.1,N/A,,Mostly Cloudy,330,2013-03-05 13:35:00
8:53 AM,39.9,30.0,68,29.86,10.0,NW,21.9,28.8,N/A,,Mostly Cloudy,320,2013-03-05 13:53:00
9:53 AM,42.1,32.0,67,29.87,10.0,NNW,20.7,27.6,N/A,,Mostly Cloudy,340,2013-03-05 14:53:00
10:53 AM,43.0,32.0,65,29.88,10.0,NNW,21.9,29.9,N/A,,Scattered Clouds,330,2013-03-05 15:53:00
11:00 AM,42.8,32.0,66,29.88,10.0,NNW,23.0,28.8,N/A,,Mostly Cloudy,340,2013-03-05 16:00:00
11:53 AM,42.1,33.1,70,29.89,10.0,North,24.2,31.1,N/A,,Mostly Cloudy,350,2013-03-05 16:53:00
12:53 PM,42.1,34.0,73,29.90,10.0,North,18.4,26.5,N/A,,Overcast,350,2013-03-05 17:53:00
1:53 PM,42.1,36.0,79,29.91,10.0,NNW,16.1,-,N/A,,Overcast,340,2013-03-05 18:53:00
2:53 PM,41.0,37.0,86,29.93,9.0,North,15.0,-,0.00,,Overcast,350,2013-03-05 19:53:00
3:33 PM,41.0,37.4,87,29.95,10.0,North,13.8,-,0.00,,Overcast,350,2013-03-05 20:33:00
3:34 PM,41.0,37.4,87,29.95,10.0,NNW,12.7,-,0.00,,Overcast,340,2013-03-05 20:34:00
3:53 PM,41.0,37.0,86,29.96,10.0,NNW,16.1,-,0.00,,Overcast,340,2013-03-05 20:53:00
4:53 PM,41.0,36.0,82,29.98,10.0,North,10.4,-,0.00,,Overcast,350,2013-03-05 21:53:00
5:53 PM,39.9,35.1,83,29.99,10.0,North,15.0,-,N/A,,Overcast,10,2013-03-05 22:53:00
6:53 PM,39.0,34.0,82,30.00,10.0,North,10.4,-,0.00,,Mostly Cloudy,10,2013-03-05 23:53:00
7:02 PM,39.2,33.8,81,30.00,10.0,North,9.2,-,N/A,,Scattered Clouds,360,2013-03-06 00:02:00
7:53 PM,37.9,34.0,86,30.01,10.0,North,9.2,-,N/A,,Partly Cloudy,360,2013-03-06 00:53:00
8:20 PM,39.2,35.6,87,30.01,10.0,North,11.5,-,0.00,Rain,Light Rain,10,2013-03-06 01:20:00
8:53 PM,37.9,34.0,86,30.01,10.0,North,9.2,-,0.00,,Partly Cloudy,10,2013-03-06 01:53:00
9:14 PM,37.4,35.6,93,30.01,10.0,NNE,8.1,-,0.00,,Mostly Cloudy,30,2013-03-06 02:14:00
9:53 PM,39.0,35.1,86,30.02,10.0,North,8.1,-,0.00,,Overcast,10,2013-03-06 02:53:00
10:15 PM,37.4,35.6,93,30.01,10.0,NNE,4.6,-,N/A,,Overcast,20,2013-03-06 03:15:00
10:53 PM,37.9,35.1,89,30.03,10.0,NW,3.5,-,N/A,,Mostly Cloudy,310,2013-03-06 03:53:00
11:53 PM,32.0,28.9,88,30.01,10.0,NNE,9.2,-,N/A,,Clear,30,2013-03-06 04:53:00